Regional Weather Roundup
Issued by NWS Charleston, WV

Home | Current Version | Previous Version | Text Only | Print | Product List | Glossary Off
Versions: 1 2 3 4 5 6 7 8 9 10 11 12 13 14 15 16 17 18 19 20 21 22 23 24 25 26 27 28 29 30 31 32 33 34 35 36 37 38 39 40 41 42 43 44 45 46 47 48 49 50

000
ASUS41 KRLX 262010
RWRRLX
West Virginia Regional Weather Roundup
National Weather Service Charleston WV
300 PM EST FRI DEC 26 2014

Note: "fair" indicates few or no clouds below 12,000 feet with no
significant weather and/or obstructions to visibility.

WVZ003-262100-
Northern Panhandle of West Virginia

CITY           SKY/WX    TMP DP  RH WIND       PRES   REMARKS
WHEELING       SUNNY     48  32  53 SW8       30.18S
$$

WVZ009-262100-
Northwest West Virginia

CITY           SKY/WX    TMP DP  RH WIND       PRES   REMARKS
PARKERSBURG    MOSUNNY   51  33  50 S12       30.23F
$$

WVZ006-262100-
Western West Virginia

CITY           SKY/WX    TMP DP  RH WIND       PRES   REMARKS
HUNTINGTON     MOSUNNY   50  34  54 S9        30.23F
$$

WVZ015-262100-
West Central West Virginia

CITY           SKY/WX    TMP DP  RH WIND       PRES   REMARKS
CHARLESTON     PTSUNNY   52  31  44 S6        30.23F
$$

WVZ022-031-262100-
North Central West Virginia

CITY           SKY/WX    TMP DP  RH WIND       PRES   REMARKS
CLARKSBURG     MOSUNNY   49  31  49 S8        30.22S
MORGANTOWN     SUNNY     50  27  40 S9        30.21S
$$

WVZ025-035-042-045-262100-
Southern West Virginia

CITY           SKY/WX    TMP DP  RH WIND       PRES   REMARKS
BECKLEY        SUNNY     48  23  37 VRB7      30.24S
LOGAN            N/A     50  32  50 CALM      30.24S
BLUEFIELD      MOSUNNY   54  19  25 N3        30.24S
LEWISBURG      SUNNY     48  28  44 S5        30.24F
$$

WVZ047-262100-
Northern Mountains of West Virginia

CITY           SKY/WX    TMP DP  RH WIND       PRES   REMARKS
ELKINS         SUNNY     52  23  32 CALM      30.21S
$$

WVZ052-262100-
Eastern Panhandle of West Virginia

CITY           SKY/WX    TMP DP  RH WIND       PRES   REMARKS
MARTINSBURG    SUNNY     53  28  38 S5        30.22S
PETERSBURG     SUNNY     56  24  28 CALM      30.19F
$$


USA.gov is the U.S. government's official web portal to all federal, state and local government web resources and services.